Weather in Lesnoy Gorodok

Russia / Zabaykalsky Krai     51°44′02″N   113°04′08″E
temp.,
°C
wind,
m/s
gust,
m/s
humid.,
%
clouds,
%
prec.,
mm/h
press.,
hPa
HPBL,
m
28 november, sun
sun2800:00−8wnw3774100 0.0 1031289
03:00−10wnw3972100 0.0 1032431
06:00−11wnw3971100 0.0 1033507
09:00−12wnw41068100 0.0 1034617
12:00−10wnw596346 0.0 1033717
15:00−9wnw58565 0.0 1032942
18:00−14w22835 0.0 103449
21:00−17sw119553 0.0 103516
29 november, mon
mon2900:00−18ssw11967 0.0 103516
03:00−16sw1187100 0.0 103333
06:00−15ssw1189100 0.0 103133
09:00−17sw1196100 0.0 103117
12:00−11sw246998 0.0 1029358
15:00−8w496470 0.0 10261139
18:00−11w4117779 0.0 1028380
21:00−13wsw398798 0.0 1028311
30 november, tue
tue3000:00−11wsw3984100 0.0 1027411
03:00−10w4127975 0.0 1026581
06:00−11wnw514765 0.0 1025751
09:00−11wnw514745 0.0 1026777
12:00−9wnw5116537 0.0 10261008
15:00−8nw59595 0.0 10251017
18:00−12wnw38775 0.0 1027231
21:00−15sw11948 0.0 102917
1 december, wed
wed100:00−15ssw119718 0.0 102828
03:00−15ssw229852 0.0 102646
06:00−5w51565100 0.0 10161027
09:00−7wsw51468100 0.0 1015740
12:00−4wnw9186077 0.0 10121111
15:00−4wnw91863100 0.0 10101098
18:00−4wnw101968100 0.0 10101299
21:00−4wnw7177090 0.0 10111727
2 december, thu
thu200:00−6nw7176017 0.1 10131739
03:00−10nw411613 0.1 1017565
06:00−14wnw23812 0.0 102074
09:00−15w26845 0.0 1022183
12:00−8nw4106453 0.0 1020869
15:00−6wnw41161100 0.0 10161093
18:00−7w412778 0.0 1015533
21:00−6wsw51467100 0.0 1012773